,,PA_Meas_PMT16A,,PR_Meas_QMR101_102,,RH_Meas_QMH101,,SR_Meas_QMS101,,TA_Meas_QMH101,,GenWind,,GenWind,
time,status,PA,status,PR,status,RH,status,SR,status,TA,status,DirAvg,status,SpdAvg,
2011-09-04, 00:00:05,VALID,918.042,VALID,0,VALID,97.4196,VALID,0,VALID,18.008,VALID,171,VALID,0.296094,
2011-09-04, 00:01:05,VALID,918.003,VALID,0,VALID,97.4349,VALID,0,VALID,18.047,VALID,171,VALID,0.573828,
2011-09-04, 00:02:05,VALID,917.98,VALID,0,VALID,97.4273,VALID,0,VALID,18.0275,VALID,171,VALID,0.598437,
2011-09-04, 00:03:05,VALID,917.978,VALID,0,VALID,97.4349,VALID,0,VALID,18.047,VALID,171,VALID,0.657422,
2011-09-04, 00:04:05,VALID,917.954,VALID,0,VALID,97.4425,VALID,0,VALID,18.0665,VALID,171,VALID,0.69375,
2011-09-04, 00:05:05,VALID,917.945,VALID,0,VALID,97.4196,VALID,0,VALID,17.9886,VALID,171,VALID,0.667578,
2011-09-04, 00:06:05,VALID,917.903,VALID,0,VALID,97.4349,VALID,0,VALID,18.047,VALID,171,VALID,0.684766,
2011-09-04, 00:07:05,VALID,917.924,VALID,0,VALID,97.4425,VALID,0,VALID,18.125,VALID,171,VALID,0.794531,
2011-09-04, 00:08:05,VALID,917.9,VALID,0,VALID,97.473,VALID,0,VALID,18.1626,VALID,171,VALID,0.9125,
2011-09-04, 00:09:05,VALID,917.876,VALID,0,VALID,97.4654,VALID,0.107441,VALID,18.1821,VALID,171,VALID,0.642187,
2011-09-04, 00:10:05,VALID,917.888,VALID,0,VALID,97.4806,VALID,0.107441,VALID,18.1821,VALID,171,VALID,0.551172,
2011-09-04, 00:11:05,VALID,917.848,VALID,0,VALID,97.4273,VALID,0,VALID,18.1626,VALID,171,VALID,0.492578,
2011-09-04, 00:12:05,VALID,917.819,VALID,0,VALID,97.4044,VALID,0.107441,VALID,18.1626,VALID,171,VALID,0.480469,
2011-09-04, 00:13:05,VALID,917.812,VALID,0,VALID,97.4349,VALID,0.107441,VALID,18.1835,VALID,171,VALID,0.300391,
2011-09-04, 00:14:05,VALID,917.84,VALID,0,VALID,97.4196,VALID,0,VALID,18.1626,VALID,171,VALID,0.607422,
2011-09-04, 00:15:05,VALID,917.805,VALID,0,VALID,97.4044,VALID,0,VALID,18.1626,VALID,171,VALID,0.779688,
2011-09-04, 00:16:05,VALID,917.797,VALID,0,VALID,97.3663,VALID,0,VALID,18.1431,VALID,171,VALID,0.413281,
2011-09-04, 00:17:05,VALID,917.738,VALID,0,VALID,97.3586,VALID,0.107441,VALID,18.1041,VALID,171,VALID,0.325391,
2011-09-04, 00:18:05,VALID,917.727,VALID,0,VALID,97.3358,VALID,0,VALID,18.0651,VALID,171,VALID,0.511328,
2011-09-04, 00:19:05,VALID,917.709,VALID,0,VALID,97.3129,VALID,0,VALID,18.0651,VALID,171,VALID,0.442187,
2011-09-04, 00:20:05,VALID,917.666,VALID,0,VALID,97.3129,VALID,0.107441,VALID,18.0651,VALID,171,VALID,0.457422,
2011-09-04, 00:21:05,VALID,917.639,VALID,0,VALID,97.2977,VALID,0,VALID,18.0457,VALID,171,VALID,0.576172,
2011-09-04, 00:22:05,VALID,917.632,VALID,0,VALID,97.1833,VALID,0.107441,VALID,17.9677,VALID,171,VALID,0.788672,
2011-09-04, 00:23:05,VALID,917.602,VALID,0,VALID,97.2443,VALID,0,VALID,17.9482,VALID,171,VALID,0.833203,
2011-09-04, 00:24:05,VALID,917.608,VALID,0,VALID,97.3434,VALID,0.107441,VALID,18.0067,VALID,171,VALID,0.803906,
2011-09-04, 00:25:05,VALID,917.626,VALID,0,VALID,97.3053,VALID,0,VALID,17.9482,VALID,171,VALID,0.821094,
2011-09-04, 00:26:05,VALID,917.632,VALID,0.2,VALID,97.3053,VALID,0,VALID,17.9482,VALID,172,VALID,0.794141,
2011-09-04, 00:27:05,VALID,917.606,VALID,0,VALID,97.229,VALID,0,VALID,17.9092,VALID,172,VALID,0.760938,
2011-09-04, 00:28:05,VALID,917.602,VALID,0,VALID,97.2443,VALID,0,VALID,17.8897,VALID,171,VALID,0.739062,
2011-09-04, 00:29:05,VALID,917.59,VALID,0,VALID,97.3129,VALID,0,VALID,17.8508,VALID,171,VALID,1.05781,
2011-09-04, 00:30:05,VALID,917.595,VALID,0,VALID,97.3815,VALID,0,VALID,17.9287,VALID,171,VALID,1.1125,
2011-09-04, 00:31:05,VALID,917.591,VALID,0,VALID,97.3968,VALID,0,VALID,17.9677,VALID,171,VALID,1.09414,
2011-09-04, 00:32:05,VALID,917.572,VALID,0,VALID,97.4044,VALID,0.107441,VALID,17.9677,VALID,170,VALID,0.947656,
2011-09-04, 00:33:05,VALID,917.567,VALID,0,VALID,97.3891,VALID,0.107441,VALID,17.9872,VALID,170,VALID,1.05508,
2011-09-04, 00:34:05,VALID,917.551,VALID,0,VALID,97.3968,VALID,0,VALID,17.9872,VALID,170,VALID,1.01445,
2011-09-04, 00:35:05,VALID,917.529,VALID,0,VALID,97.3815,VALID,0,VALID,17.9872,VALID,170,VALID,0.950781,
2011-09-04, 00:36:05,VALID,917.5,VALID,0,VALID,97.3586,VALID,0.107441,VALID,17.9872,VALID,170,VALID,1.0082,
2011-09-04, 00:37:05,VALID,917.499,VALID,0,VALID,97.3663,VALID,0.107441,VALID,18.0067,VALID,170,VALID,1.14492,
2011-09-04, 00:38:05,VALID,917.5,VALID,0,VALID,97.3663,VALID,0.107441,VALID,17.9677,VALID,170,VALID,1.04336,
2011-09-04, 00:39:05,VALID,917.483,VALID,0,VALID,97.3663,VALID,0,VALID,17.9886,VALID,170,VALID,0.915625,
2011-09-04, 00:40:05,VALID,917.48,VALID,0,VALID,97.351,VALID,0,VALID,18.0275,VALID,170,VALID,1.26445,
2011-09-04, 00:41:05,VALID,917.473,VALID,0,VALID,97.3739,VALID,0,VALID,18.0665,VALID,170,VALID,1.18398,
2011-09-04, 00:42:05,VALID,917.478,VALID,0,VALID,97.3663,VALID,0,VALID,18.086,VALID,169,VALID,1.22578,
2011-09-04, 00:43:05,VALID,917.462,VALID,0,VALID,97.3663,VALID,0,VALID,18.086,VALID,169,VALID,1.27422,
2011-09-04, 00:44:05,VALID,917.463,VALID,0,VALID,97.3663,VALID,0,VALID,18.0665,VALID,169,VALID,1.01641,
2011-09-04, 00:45:05,VALID,917.421,VALID,0,VALID,97.3281,VALID,0,VALID,18.0275,VALID,169,VALID,1.03203,
2011-09-04, 00:46:05,VALID,917.4,VALID,0,VALID,97.2748,VALID,0,VALID,18.008,VALID,169,VALID,0.916016,
2011-09-04, 00:47:05,VALID,917.425,VALID,0,VALID,97.2367,VALID,0,VALID,17.9691,VALID,169,VALID,0.736719,
2011-09-04, 00:48:05,VALID,917.364,VALID,0,VALID,97.29,VALID,0,VALID,17.9691,VALID,169,VALID,0.796484,
2011-09-04, 00:49:05,VALID,917.404,VALID,0,VALID,97.3281,VALID,0,VALID,17.9691,VALID,168,VALID,0.984766,
2011-09-04, 00:50:05,VALID,917.389,VALID,0,VALID,97.3129,VALID,0,VALID,17.9496,VALID,168,VALID,0.710938,
2011-09-04, 00:51:05,VALID,917.383,VALID,0,VALID,97.3205,VALID,0,VALID,17.9106,VALID,168,VALID,0.672266,
2011-09-04, 00:52:05,VALID,917.366,VALID,0,VALID,97.3053,VALID,0,VALID,17.8911,VALID,168,VALID,0.946484,
2011-09-04, 00:53:05,VALID,917.354,VALID,0,VALID,97.3281,VALID,0,VALID,17.8911,VALID,168,VALID,0.726172,
2011-09-04, 00:54:05,VALID,917.341,VALID,0,VALID,97.3129,VALID,0.107441,VALID,17.8508,VALID,168,VALID,0.914453,
2011-09-04, 00:55:05,VALID,917.325,VALID,0,VALID,97.3663,VALID,0,VALID,17.8702,VALID,168,VALID,0.847266,
2011-09-04, 00:56:05,VALID,917.29,VALID,0,VALID,97.3968,VALID,0,VALID,17.9092,VALID,168,VALID,0.728906,
2011-09-04, 00:57:05,VALID,917.292,VALID,0,VALID,97.3891,VALID,0.107441,VALID,17.9092,VALID,167,VALID,1.08164,
2011-09-04, 00:58:05,VALID,917.293,VALID,0,VALID,97.3968,VALID,0,VALID,17.9092,VALID,167,VALID,0.961719,
2011-09-04, 00:59:05,VALID,917.328,VALID,0,VALID,97.3891,VALID,0.107441,VALID,17.9092,VALID,167,VALID,0.84375,
2011-09-04, 01:00:05,VALID,917.333,VALID,0,VALID,97.3739,VALID,0,VALID,17.8702,VALID,167,VALID,0.758594,
2011-09-04, 01:01:05,VALID,917.324,VALID,0,VALID,97.3891,VALID,0,VALID,17.8897,VALID,168,VALID,1.08477,
2011-09-04, 01:02:05,VALID,917.347,VALID,0,VALID,97.4044,VALID,0,VALID,17.9496,VALID,167,VALID,1.04961,
2011-09-04, 01:03:05,VALID,917.346,VALID,0,VALID,97.3815,VALID,0.107441,VALID,17.9287,VALID,167,VALID,0.888672,
2011-09-04, 01:04:05,VALID,917.359,VALID,0,VALID,97.4044,VALID,0,VALID,17.9482,VALID,167,VALID,0.892578,
2011-09-04, 01:05:05,VALID,917.38,VALID,0,VALID,97.3891,VALID,0,VALID,17.9872,VALID,167,VALID,0.732031,
2011-09-04, 01:06:05,VALID,917.396,VALID,0,VALID,97.3815,VALID,0,VALID,17.9482,VALID,167,VALID,0.16875,
2011-09-04, 01:07:05,VALID,917.418,VALID,0,VALID,97.1833,VALID,0.107441,VALID,17.8702,VALID,167,VALID,0.238672,
2011-09-04, 01:08:05,VALID,917.388,VALID,0,VALID,97.1604,VALID,0,VALID,17.8118,VALID,167,VALID,0.241797,
2011-09-04, 01:09:05,VALID,917.369,VALID,0,VALID,97.2138,VALID,0.107441,VALID,17.7936,VALID,167,VALID,0.583203,
2011-09-04, 01:10:05,VALID,917.331,VALID,0,VALID,97.3281,VALID,0.107441,VALID,17.8131,VALID,167,VALID,0.344141,
2011-09-04, 01:11:05,VALID,917.337,VALID,0,VALID,97.2595,VALID,0,VALID,17.7533,VALID,167,VALID,0.112109,
2011-09-04, 01:12:05,VALID,917.317,VALID,0,VALID,97.0766,VALID,0,VALID,17.6377,VALID,167,VALID,0.382813,
2011-09-04, 01:13:05,VALID,917.293,VALID,0,VALID,97.1833,VALID,0.107441,VALID,17.5974,VALID,167,VALID,0.638281,
2011-09-04, 01:14:05,VALID,917.272,VALID,0,VALID,97.3586,VALID,0.107441,VALID,17.6754,VALID,167,VALID,0.601953,
2011-09-04, 01:15:05,VALID,917.246,VALID,0,VALID,97.3281,VALID,0,VALID,17.6767,VALID,167,VALID,0.213281,
2011-09-04, 01:16:05,VALID,917.235,VALID,0,VALID,97.1452,VALID,0,VALID,17.5987,VALID,167,VALID,0.00273437,
2011-09-04, 01:17:05,VALID,917.234,VALID,0,VALID,97.2214,VALID,0,VALID,17.5403,VALID,167,VALID,0.102344,
2011-09-04, 01:18:05,VALID,917.249,VALID,0,VALID,97.2595,VALID,0,VALID,17.5194,VALID,167,VALID,0,
2011-09-04, 01:19:05,VALID,917.245,VALID,0,VALID,97.2824,VALID,0.107441,VALID,17.5194,VALID,167,VALID,0.0410156,
2011-09-04, 01:20:05,VALID,917.226,VALID,0,VALID,96.8784,VALID,0,VALID,17.3441,VALID,167,VALID,0.572656,
2011-09-04, 01:21:05,VALID,917.223,VALID,0,VALID,97.2824,VALID,0.107441,VALID,17.3649,VALID,167,VALID,0.621875,
2011-09-04, 01:22:05,VALID,917.204,VALID,0,VALID,97.4349,VALID,0.107441,VALID,17.4415,VALID,167,VALID,0.859766,
2011-09-04, 01:23:05,VALID,917.182,VALID,0,VALID,97.4501,VALID,0,VALID,17.4805,VALID,167,VALID,0.586328,
2011-09-04, 01:24:05,VALID,917.175,VALID,0,VALID,97.4654,VALID,0,VALID,17.5389,VALID,167,VALID,0.450781,
2011-09-04, 01:25:05,VALID,917.159,VALID,0,VALID,97.473,VALID,0,VALID,17.5584,VALID,167,VALID,0.405469,
2011-09-04, 01:26:05,VALID,917.162,VALID,0,VALID,97.4501,VALID,0,VALID,17.5598,VALID,167,VALID,0.303125,
2011-09-04, 01:27:05,VALID,917.156,VALID,0,VALID,97.4425,VALID,0,VALID,17.5208,VALID,167,VALID,0.226563,
2011-09-04, 01:28:05,VALID,917.157,VALID,0,VALID,97.3358,VALID,0,VALID,17.422,VALID,167,VALID,0,
2011-09-04, 01:29:05,VALID,917.169,VALID,0,VALID,97.2977,VALID,0.107441,VALID,17.383,VALID,167,VALID,0,
2011-09-04, 01:30:05,VALID,917.154,VALID,0,VALID,97.3739,VALID,0,VALID,17.3635,VALID,167,VALID,0,
2011-09-04, 01:31:05,VALID,917.118,VALID,0,VALID,97.4501,VALID,0,VALID,17.3844,VALID,167,VALID,0,
2011-09-04, 01:32:05,VALID,917.135,VALID,0,VALID,97.473,VALID,0,VALID,17.422,VALID,167,VALID,0,
2011-09-04, 01:33:05,VALID,917.109,VALID,0,VALID,97.4806,VALID,0,VALID,17.4818,VALID,167,VALID,0,
2011-09-04, 01:34:05,VALID,917.099,VALID,0,VALID,97.4501,VALID,0,VALID,17.4428,VALID,167,VALID,0,
2011-09-04, 01:35:05,VALID,917.111,VALID,0,VALID,97.4349,VALID,0,VALID,17.3844,VALID,167,VALID,0,
2011-09-04, 01:36:05,VALID,917.089,VALID,0,VALID,97.4044,VALID,0,VALID,17.3649,VALID,167,VALID,0,
2011-09-04, 01:37:05,VALID,917.125,VALID,0,VALID,97.4501,VALID,0,VALID,17.4038,VALID,167,VALID,0,
2011-09-04, 01:38:05,VALID,917.104,VALID,0,VALID,97.4806,VALID,0,VALID,17.4233,VALID,167,VALID,0,
2011-09-04, 01:39:05,VALID,917.125,VALID,0,VALID,97.5111,VALID,0,VALID,17.4818,VALID,167,VALID,0,
2011-09-04, 01:40:05,VALID,917.162,VALID,0,VALID,97.5416,VALID,0,VALID,17.4805,VALID,167,VALID,0,
2011-09-04, 01:41:05,VALID,917.145,VALID,0,VALID,97.534,VALID,0,VALID,17.4818,VALID,167,VALID,0,
2011-09-04, 01:42:05,VALID,917.171,VALID,0,VALID,97.4654,VALID,0,VALID,17.4233,VALID,167,VALID,0,
2011-09-04, 01:43:05,VALID,917.167,VALID,0,VALID,97.4959,VALID,0,VALID,17.4428,VALID,167,VALID,0.398828,
2011-09-04, 01:44:05,VALID,917.159,VALID,0,VALID,97.4882,VALID,0,VALID,17.4038,VALID,167,VALID,0.493359,
2011-09-04, 01:45:05,VALID,917.17,VALID,0,VALID,97.5264,VALID,0,VALID,17.5208,VALID,167,VALID,0.624219,
2011-09-04, 01:46:05,VALID,917.171,VALID,0,VALID,97.5416,VALID,0,VALID,17.5792,VALID,167,VALID,0.606641,
2011-09-04, 01:47:05,VALID,917.148,VALID,0,VALID,97.5569,VALID,0,VALID,17.6182,VALID,167,VALID,0.579687,
2011-09-04, 01:48:05,VALID,917.151,VALID,0,VALID,97.5492,VALID,0,VALID,17.6182,VALID,167,VALID,0.295312,
2011-09-04, 01:49:05,VALID,917.133,VALID,0,VALID,97.534,VALID,0,VALID,17.5792,VALID,167,VALID,0.0625,
2011-09-04, 01:50:05,VALID,917.138,VALID,0,VALID,97.473,VALID,0,VALID,17.4428,VALID,167,VALID,0.120312,
2011-09-04, 01:51:05,VALID,917.148,VALID,0,VALID,97.0003,VALID,0,VALID,17.1505,VALID,167,VALID,0,
2011-09-04, 01:52:05,VALID,917.159,VALID,0,VALID,97.0994,VALID,0,VALID,17.0531,VALID,167,VALID,0.203906,
2011-09-04, 01:53:05,VALID,917.146,VALID,0,VALID,97.3968,VALID,0,VALID,17.0531,VALID,167,VALID,0,
2011-09-04, 01:54:05,VALID,917.124,VALID,0,VALID,97.534,VALID,0,VALID,17.1115,VALID,167,VALID,0.294922,
2011-09-04, 01:55:05,VALID,917.131,VALID,0,VALID,97.5645,VALID,0,VALID,17.2674,VALID,167,VALID,0.144531,
2011-09-04, 01:56:05,VALID,917.131,VALID,0,VALID,97.5873,VALID,0,VALID,17.2869,VALID,167,VALID,0,
2011-09-04, 01:57:05,VALID,917.107,VALID,0,VALID,97.5187,VALID,0,VALID,17.1505,VALID,167,VALID,0,
2011-09-04, 01:58:05,VALID,917.108,VALID,0,VALID,97.1604,VALID,0,VALID,16.9362,VALID,167,VALID,0.0046875,
2011-09-04, 01:59:05,VALID,917.124,VALID,0,VALID,97.2977,VALID,0,VALID,16.8192,VALID,167,VALID,0,
2011-09-04, 02:00:05,VALID,917.127,VALID,0,VALID,97.5264,VALID,0,VALID,16.8582,VALID,167,VALID,0,
2011-09-04, 02:01:05,VALID,917.101,VALID,0,VALID,97.5721,VALID,0,VALID,16.9167,VALID,167,VALID,0,
2011-09-04, 02:02:05,VALID,917.092,VALID,0,VALID,97.5797,VALID,0,VALID,17.0336,VALID,167,VALID,0,
2011-09-04, 02:03:05,VALID,917.078,VALID,0,VALID,97.6331,VALID,0,VALID,17.1895,VALID,167,VALID,0,
2011-09-04, 02:04:05,VALID,917.057,VALID,0,VALID,97.6712,VALID,0,VALID,17.3259,VALID,167,VALID,0,
2011-09-04, 02:05:05,VALID,917.053,VALID,0,VALID,97.656,VALID,0,VALID,17.3259,VALID,167,VALID,0.416406,
2011-09-04, 02:06:05,VALID,917.011,VALID,0,VALID,97.6636,VALID,0,VALID,17.4428,VALID,167,VALID,0.441016,
2011-09-04, 02:07:05,VALID,917.006,VALID,0,VALID,97.6788,VALID,0,VALID,17.4818,VALID,167,VALID,0.402344,
2011-09-04, 02:08:05,VALID,916.997,VALID,0,VALID,97.6712,VALID,0,VALID,17.5208,VALID,167,VALID,0.520703,
2011-09-04, 02:09:05,VALID,917.012,VALID,0,VALID,97.6865,VALID,0,VALID,17.5208,VALID,167,VALID,0.564453,
2011-09-04, 02:10:05,VALID,916.974,VALID,0,VALID,97.6712,VALID,0,VALID,17.4818,VALID,167,VALID,0.505859,
2011-09-04, 02:11:05,VALID,916.962,VALID,0,VALID,97.6788,VALID,0,VALID,17.4818,VALID,167,VALID,0.594922,
2011-09-04, 02:12:05,VALID,916.935,VALID,0,VALID,97.656,VALID,0,VALID,17.4818,VALID,167,VALID,0.727734,
2011-09-04, 02:13:05,VALID,916.935,VALID,0,VALID,97.6636,VALID,0,VALID,17.5013,VALID,167,VALID,0.819141,
2011-09-04, 02:14:05,VALID,916.901,VALID,0,VALID,97.6712,VALID,0,VALID,17.5403,VALID,167,VALID,0.839453,
2011-09-04, 02:15:05,VALID,916.901,VALID,0,VALID,97.7017,VALID,0,VALID,17.6377,VALID,167,VALID,1.14102,
2011-09-04, 02:16:05,VALID,916.898,VALID,0,VALID,97.6941,VALID,0,VALID,17.6377,VALID,167,VALID,0.754297,
2011-09-04, 02:17:05,VALID,916.861,VALID,0,VALID,97.6483,VALID,0,VALID,17.4818,VALID,167,VALID,0.783203,
2011-09-04, 02:18:05,VALID,916.866,VALID,0,VALID,97.656,VALID,0,VALID,17.3844,VALID,167,VALID,0.997266,
2011-09-04, 02:19:05,VALID,916.834,VALID,0,VALID,97.6483,VALID,0,VALID,17.2869,VALID,167,VALID,1.09531,
2011-09-04, 02:20:05,VALID,916.852,VALID,0,VALID,97.6331,VALID,0,VALID,17.2103,VALID,167,VALID,1.41016,
2011-09-04, 02:21:05,VALID,916.844,VALID,0,VALID,97.6331,VALID,0,VALID,17.1115,VALID,167,VALID,1.20313,
2011-09-04, 02:22:05,VALID,916.854,VALID,0,VALID,97.6636,VALID,0,VALID,17.0726,VALID,167,VALID,1.52539,
2011-09-04, 02:23:05,VALID,916.846,VALID,0,VALID,97.6331,VALID,0,VALID,17.0726,VALID,156,VALID,1.33984,
2011-09-04, 02:24:05,VALID,916.828,VALID,0,VALID,97.6255,VALID,0,VALID,17.0141,VALID,155,VALID,1.5457,
2011-09-04, 02:25:05,VALID,916.811,VALID,0,VALID,97.656,VALID,0,VALID,17.0141,VALID,154,VALID,1.20898,
2011-09-04, 02:26:05,VALID,916.791,VALID,0,VALID,97.6712,VALID,0,VALID,16.9933,VALID,154,VALID,1.30117,
2011-09-04, 02:27:05,VALID,916.809,VALID,0,VALID,97.6941,VALID,0,VALID,17.0141,VALID,154,VALID,1.25508,
2011-09-04, 02:28:05,VALID,916.789,VALID,0,VALID,97.7093,VALID,0,VALID,17.0531,VALID,154,VALID,1.03555,
2011-09-04, 02:29:05,VALID,916.804,VALID,0,VALID,97.7017,VALID,0,VALID,16.9933,VALID,154,VALID,0.758594,
2011-09-04, 02:30:04,VALID,916.783,VALID,0,VALID,97.7246,VALID,0,VALID,16.9556,VALID,154,VALID,0.742578,
2011-09-04, 02:31:04,VALID,916.788,VALID,0,VALID,97.7093,VALID,0,VALID,16.9362,VALID,154,VALID,0.675,
2011-09-04, 02:32:04,VALID,916.807,VALID,0,VALID,97.7169,VALID,0,VALID,16.9154,VALID,154,VALID,0.521094,
2011-09-04, 02:33:04,VALID,916.787,VALID,0,VALID,97.7169,VALID,0,VALID,16.9751,VALID,154,VALID,1.13281,
2011-09-04, 02:34:04,VALID,916.797,VALID,0,VALID,97.7551,VALID,0,VALID,16.9946,VALID,154,VALID,1.35039,
2011-09-04, 02:35:04,VALID,916.758,VALID,0,VALID,97.7474,VALID,0.107441,VALID,16.9543,VALID,129,VALID,1.48906,
2011-09-04, 02:36:04,VALID,916.79,VALID,0,VALID,97.7398,VALID,0,VALID,16.9556,VALID,126,VALID,1.2082,
2011-09-04, 02:37:04,VALID,916.752,VALID,0,VALID,97.7551,VALID,0,VALID,16.9543,VALID,126,VALID,1.44492,
2011-09-04, 02:38:04,VALID,916.803,VALID,0,VALID,97.7856,VALID,0,VALID,17.0336,VALID,126,VALID,1.75469,
2011-09-04, 02:39:04,VALID,916.792,VALID,0,VALID,97.7932,VALID,0,VALID,17.1115,VALID,130,VALID,1.36563,
2011-09-04, 02:40:04,VALID,916.777,VALID,0,VALID,97.8008,VALID,0,VALID,17.092,VALID,119,VALID,1.23984,
2011-09-04, 02:41:04,VALID,916.791,VALID,0,VALID,97.7856,VALID,0,VALID,17.092,VALID,143,VALID,0.988672,
2011-09-04, 02:42:04,VALID,916.799,VALID,0,VALID,97.816,VALID,0,VALID,17.1505,VALID,124,VALID,0.732031,
2011-09-04, 02:43:04,VALID,916.847,VALID,0,VALID,97.8084,VALID,0,VALID,17.1895,VALID,156,VALID,0.792578,
2011-09-04, 02:44:04,VALID,916.844,VALID,0,VALID,97.816,VALID,0,VALID,17.209,VALID,142,VALID,0.713672,
2011-09-04, 02:45:04,VALID,916.852,VALID,0,VALID,97.8237,VALID,0,VALID,17.2077,VALID,142,VALID,0.775,
2011-09-04, 02:46:04,VALID,916.873,VALID,0,VALID,97.816,VALID,0,VALID,17.2479,VALID,142,VALID,0.240625,
2011-09-04, 02:47:04,VALID,916.847,VALID,0,VALID,97.816,VALID,0.107441,VALID,17.2479,VALID,142,VALID,0.628125,
2011-09-04, 02:48:04,VALID,916.841,VALID,0,VALID,97.816,VALID,0,VALID,17.2285,VALID,142,VALID,0.885547,
2011-09-04, 02:49:04,VALID,916.817,VALID,0,VALID,97.8465,VALID,0,VALID,17.3454,VALID,142,VALID,0.991016,
2011-09-04, 02:50:04,VALID,916.855,VALID,0,VALID,97.8389,VALID,0,VALID,17.3649,VALID,142,VALID,0.991406,
2011-09-04, 02:51:04,VALID,916.865,VALID,0,VALID,97.8084,VALID,0,VALID,17.4038,VALID,122,VALID,1.03281,
2011-09-04, 02:52:04,VALID,916.851,VALID,0,VALID,97.8465,VALID,0,VALID,17.4623,VALID,123,VALID,1.19023,
2011-09-04, 02:53:04,VALID,916.863,VALID,0,VALID,97.8389,VALID,0,VALID,17.5,VALID,123,VALID,0.833594,
2011-09-04, 02:54:04,VALID,916.867,VALID,0,VALID,97.8237,VALID,0,VALID,17.5403,VALID,122,VALID,1.17109,
2011-09-04, 02:55:04,VALID,916.833,VALID,0,VALID,97.8389,VALID,0,VALID,17.5598,VALID,123,VALID,0.996484,
2011-09-04, 02:56:04,VALID,916.823,VALID,0,VALID,97.8237,VALID,0,VALID,17.5584,VALID,123,VALID,1.15547,
2011-09-04, 02:57:04,VALID,916.811,VALID,0,VALID,97.8465,VALID,0,VALID,17.6182,VALID,123,VALID,1.32461,
2011-09-04, 02:58:04,VALID,916.794,VALID,0,VALID,97.8542,VALID,0,VALID,17.6182,VALID,123,VALID,1.29766,
2011-09-04, 02:59:04,VALID,916.786,VALID,0,VALID,97.8618,VALID,0,VALID,17.5792,VALID,130,VALID,1.15078,
2011-09-04, 03:00:04,VALID,916.799,VALID,0,VALID,97.8389,VALID,0,VALID,17.5792,VALID,129,VALID,1.49023,
2011-09-04, 03:01:04,VALID,916.781,VALID,0,VALID,97.8237,VALID,0,VALID,17.5792,VALID,128,VALID,1.02188,
2011-09-04, 03:02:04,VALID,916.806,VALID,0,VALID,97.8237,VALID,0,VALID,17.5598,VALID,120,VALID,1.09805,
2011-09-04, 03:03:04,VALID,916.794,VALID,0,VALID,97.8313,VALID,0,VALID,17.5208,VALID,127,VALID,0.725781,
2011-09-04, 03:04:04,VALID,916.81,VALID,0,VALID,97.8313,VALID,0.107441,VALID,17.5,VALID,127,VALID,0.78125,
2011-09-04, 03:05:04,VALID,916.785,VALID,0,VALID,97.8389,VALID,0,VALID,17.5389,VALID,127,VALID,1.14688,
2011-09-04, 03:06:04,VALID,916.801,VALID,0,VALID,97.8313,VALID,0,VALID,17.5779,VALID,127,VALID,0.585938,
2011-09-04, 03:07:04,VALID,916.818,VALID,0,VALID,97.8465,VALID,0,VALID,17.5584,VALID,127,VALID,0.426953,
2011-09-04, 03:08:04,VALID,916.826,VALID,0,VALID,97.8542,VALID,0,VALID,17.5389,VALID,127,VALID,0.476172,
2011-09-04, 03:09:04,VALID,916.781,VALID,0,VALID,97.8237,VALID,0.107441,VALID,17.5403,VALID,127,VALID,0.638281,
2011-09-04, 03:10:04,VALID,916.8,VALID,0,VALID,97.8465,VALID,0,VALID,17.5013,VALID,127,VALID,0.481641,
2011-09-04, 03:11:04,VALID,916.797,VALID,0,VALID,97.8542,VALID,0,VALID,17.5013,VALID,127,VALID,0.834766,
2011-09-04, 03:12:04,VALID,916.792,VALID,0,VALID,97.8465,VALID,0,VALID,17.4805,VALID,127,VALID,0.865234,
2011-09-04, 03:13:04,VALID,916.776,VALID,0,VALID,97.8313,VALID,0,VALID,17.461,VALID,120,VALID,1.2457,
2011-09-04, 03:14:04,VALID,916.782,VALID,0,VALID,97.8542,VALID,0,VALID,17.4025,VALID,116,VALID,0.851953,
2011-09-04, 03:15:04,VALID,916.75,VALID,0,VALID,97.8389,VALID,0.107441,VALID,17.422,VALID,116,VALID,0.986328,
2011-09-04, 03:16:04,VALID,916.769,VALID,0,VALID,97.8389,VALID,0.107441,VALID,17.4805,VALID,116,VALID,0.783984,
2011-09-04, 03:17:04,VALID,916.749,VALID,0,VALID,97.8694,VALID,0,VALID,17.5389,VALID,116,VALID,0.975391,
2011-09-04, 03:18:04,VALID,916.783,VALID,0,VALID,97.8618,VALID,0,VALID,17.5987,VALID,116,VALID,0.530078,
2011-09-04, 03:19:04,VALID,916.772,VALID,0,VALID,97.8618,VALID,0.107441,VALID,17.5013,VALID,116,VALID,0.574219,
2011-09-04, 03:20:04,VALID,916.778,VALID,0,VALID,97.8694,VALID,0,VALID,17.461,VALID,116,VALID,0.671484,
2011-09-04, 03:21:04,VALID,916.781,VALID,0,VALID,97.8618,VALID,0,VALID,17.4428,VALID,116,VALID,0.959375,
2011-09-04, 03:22:04,VALID,916.762,VALID,0,VALID,97.877,VALID,0.107441,VALID,17.422,VALID,116,VALID,0.855469,
2011-09-04, 03:23:04,VALID,916.771,VALID,0,VALID,97.877,VALID,0,VALID,17.5013,VALID,116,VALID,0.569531,
2011-09-04, 03:24:04,VALID,916.781,VALID,0,VALID,97.8694,VALID,0,VALID,17.4805,VALID,117,VALID,0.423828,
2011-09-04, 03:25:04,VALID,916.778,VALID,0,VALID,97.8618,VALID,0.107441,VALID,17.5403,VALID,117,VALID,0.698438,
2011-09-04, 03:26:04,VALID,916.766,VALID,0,VALID,97.8542,VALID,0.107441,VALID,17.5194,VALID,116,VALID,0.384766,
2011-09-04, 03:27:04,VALID,916.813,VALID,0,VALID,97.8694,VALID,0.107441,VALID,17.5,VALID,117,VALID,0.314063,
2011-09-04, 03:28:04,VALID,916.802,VALID,0,VALID,97.877,VALID,0,VALID,17.5,VALID,117,VALID,0.405078,
2011-09-04, 03:29:04,VALID,916.783,VALID,0,VALID,97.8923,VALID,0,VALID,17.4818,VALID,116,VALID,0.672266,
2011-09-04, 03:30:04,VALID,916.768,VALID,0,VALID,97.8618,VALID,0,VALID,17.4818,VALID,117,VALID,0.671094,
2011-09-04, 03:31:04,VALID,916.762,VALID,0,VALID,97.8999,VALID,0.107441,VALID,17.5,VALID,122,VALID,0.776953,
2011-09-04, 03:32:04,VALID,916.735,VALID,0,VALID,97.8999,VALID,0,VALID,17.5208,VALID,123,VALID,0.611328,
2011-09-04, 03:33:04,VALID,916.739,VALID,0,VALID,97.8618,VALID,0,VALID,17.5987,VALID,131,VALID,0.732813,
2011-09-04, 03:34:04,VALID,916.731,VALID,0,VALID,97.877,VALID,0.107441,VALID,17.6364,VALID,131,VALID,0.682031,
2011-09-04, 03:35:04,VALID,916.769,VALID,0,VALID,97.877,VALID,0,VALID,17.5779,VALID,131,VALID,0.300781,
2011-09-04, 03:36:04,VALID,916.743,VALID,0,VALID,97.877,VALID,0,VALID,17.5584,VALID,131,VALID,0.582031,
2011-09-04, 03:37:04,VALID,916.778,VALID,0,VALID,97.8847,VALID,0,VALID,17.5389,VALID,131,VALID,0.810938,
2011-09-04, 03:38:04,VALID,916.781,VALID,0,VALID,97.8923,VALID,0,VALID,17.5403,VALID,131,VALID,0.878906,
2011-09-04, 03:39:04,VALID,916.785,VALID,0,VALID,97.877,VALID,0.107441,VALID,17.4818,VALID,131,VALID,0.897266,
2011-09-04, 03:40:04,VALID,916.763,VALID,0,VALID,97.877,VALID,0,VALID,17.4623,VALID,131,VALID,0.798047,
2011-09-04, 03:41:04,VALID,916.743,VALID,0,VALID,97.8618,VALID,0,VALID,17.4428,VALID,131,VALID,0.634766,
2011-09-04, 03:42:04,VALID,916.752,VALID,0,VALID,97.8618,VALID,0,VALID,17.4415,VALID,131,VALID,0.74375,
2011-09-04, 03:43:04,VALID,916.74,VALID,0,VALID,97.8618,VALID,0,VALID,17.4818,VALID,131,VALID,0.752344,
2011-09-04, 03:44:04,VALID,916.743,VALID,0,VALID,97.8923,VALID,0,VALID,17.5013,VALID,131,VALID,0.663281,